Tracking 28091 objects as of 30-Sep-2023
HD Live streaming from Space Station
objects crossing your sky now

ION SCV-007

Track ION SCV-007 now!
10-day predictions
ION SCV-007 is classified as:


NORAD ID: 55060
Int'l Code: 2023-001BD
Perigee: 644.1 km
Apogee: 660.5 km
Inclination: 98.0 °
Period: 97.6 minutes
Semi major axis: 7023 km
RCS: Unknown
Launch date: January 3, 2023
Source: Italy (IT)
Launch site: AIR FORCE EASTERN TEST RANGE (AFETR)

Uplink (MHz):
Downlink (MHz): 401.415
Beacon (MHz):
Mode: 1200bps FSK
Call sign:
Status: Active

Your satellite tracking list
Your tracking list is empty




NASA's NSSDC Master Catalog

Two Line Element Set (TLE):
1 55060U 23001BD  23272.20146552  .00000982  00000-0  15345-3 0  9993
2 55060  98.0376 332.3882 0011691 285.4140  74.5777 14.75004117 39876
Source of the keplerian elements: AFSPC